• In Romania
  • List of Countries
  • For 7 days
  • Water Temperature
  • Satellite Maps
  • Weather Map
  • Weather Widgets
  • user-avatar
    Login

    Hourly Weather Abomey

    Today, 14 December, Thursday

    Time Temperature Precipitation Wind Pressure Humidity
    00:00 +27°C° 0 mm 1 mps 739 mmHg 79%
    01:00 +27°C° 0 mm 1 mps 738 mmHg 81%
    02:00 +26°C° 0 mm 1 mps 738 mmHg 83%
    03:00 +26°C° 0 mm 1 mps 738 mmHg 86%
    04:00 +26°C° 0 mm 1 mps 738 mmHg 88%
    05:00 +25°C° 0 mm 1 mps 738 mmHg 89%
    06:00 +25°C° 0 mm 1 mps 738 mmHg 91%
    07:00 +27°C° 0 mm 1 mps 739 mmHg 82%
    08:00 +29°C° 0 mm 1 mps 739 mmHg 72%
    09:00 +30°C° 0 mm 1 mps 739 mmHg 63%
    10:00 +33°C° 0 mm 1 mps 739 mmHg 52%
    11:00 +36°C° 0 mm 1 mps 739 mmHg 41%
    12:00 +39°C° 0 mm 1 mps 739 mmHg 28%
    13:00 +39°C° 0 mm 1 mps 738 mmHg 27%
    14:00 +39°C° 0 mm 2 mps 738 mmHg 26%
    15:00 +39°C° 0 mm 2 mps 737 mmHg 25%
    16:00 +37°C° 0 mm 3 mps 737 mmHg 32%
    17:00 +35°C° 0 mm 3 mps 737 mmHg 40%
    18:00 +33°C° 0 mm 3 mps 737 mmHg 48%
    19:00 +31°C° 0 mm 3 mps 738 mmHg 55%
    20:00 +30°C° 0 mm 3 mps 738 mmHg 63%
    21:00 +28°C° 0 mm 3 mps 739 mmHg 70%
    22:00 +28°C° 0 mm 3 mps 739 mmHg 72%
    23:00 +28°C° 0 mm 3 mps 739 mmHg 73%

    Tomorrow, 15 December, Friday

    Time Temperature Precipitation Wind Pressure Humidity
    00:00 +27°C° 0 mm 3 mps 739 mmHg 75%
    01:00 +27°C° 0 mm 2 mps 739 mmHg 77%
    02:00 +27°C° 0 mm 2 mps 738 mmHg 79%
    03:00 +26°C° 0 mm 2 mps 738 mmHg 81%
    04:00 +26°C° 0 mm 2 mps 738 mmHg 82%
    05:00 +26°C° 0 mm 2 mps 739 mmHg 84%
    06:00 +25°C° 0 mm 1 mps 739 mmHg 86%
    07:00 +27°C° 0 mm 2 mps 739 mmHg 77%
    08:00 +29°C° 0 mm 2 mps 740 mmHg 67%
    09:00 +31°C° 0 mm 2 mps 740 mmHg 58%
    10:00 +34°C° 0 mm 2 mps 740 mmHg 49%
    11:00 +37°C° 0 mm 2 mps 739 mmHg 41%
    12:00 +39°C° 0 mm 1 mps 739 mmHg 33%
    13:00 +39°C° 0 mm 1 mps 738 mmHg 30%
    14:00 +39°C° 0 mm 1 mps 737 mmHg 28%
    15:00 +40°C° 0 mm 1 mps 737 mmHg 26%
    16:00 +38°C° 0 mm 2 mps 737 mmHg 32%
    17:00 +36°C° 0 mm 2 mps 737 mmHg 38%
    18:00 +34°C° 0 mm 3 mps 737 mmHg 44%
    19:00 +33°C° 0 mm 3 mps 737 mmHg 53%
    20:00 +30°C° 0 mm 3 mps 738 mmHg 62%
    21:00 +29°C° 0 mm 3 mps 738 mmHg 71%
    22:00 +28°C° 0 mm 3 mps 738 mmHg 73%
    23:00 +28°C° 0 mm 3 mps 738 mmHg 76%

    Day after tomorrow, 16 December, Saturday

    Time Temperature Precipitation Wind Pressure Humidity
    00:00 +27°C° 0 mm 3 mps 738 mmHg 79%
    01:00 +27°C° 0 mm 3 mps 738 mmHg 80%
    02:00 +27°C° 0 mm 3 mps 738 mmHg 82%
    03:00 +26°C° 0 mm 3 mps 737 mmHg 83%
    04:00 +26°C° 0 mm 2 mps 737 mmHg 85%
    05:00 +26°C° 0 mm 2 mps 738 mmHg 86%
    06:00 +25°C° 0 mm 1 mps 738 mmHg 88%
    07:00 +27°C° 0 mm 2 mps 739 mmHg 80%
    08:00 +29°C° 0 mm 2 mps 739 mmHg 71%
    09:00 +31°C° 0 mm 3 mps 740 mmHg 63%
    10:00 +34°C° 0 mm 3 mps 740 mmHg 54%
    11:00 +36°C° 0 mm 2 mps 739 mmHg 46%
    12:00 +38°C° 0 mm 2 mps 739 mmHg 38%
    13:00 +37°C° 0 mm 2 mps 738 mmHg 37%
    14:00 +37°C° 0 mm 2 mps 737 mmHg 37%
    15:00 +37°C° 0 mm 2 mps 737 mmHg 37%
    16:00 +36°C° 0 mm 2 mps 737 mmHg 42%
    17:00 +35°C° 0 mm 3 mps 737 mmHg 47%
    18:00 +34°C° 0 mm 3 mps 737 mmHg 52%
    19:00 +31°C° 0.1 mm 3 mps 738 mmHg 60%
    20:00 +30°C° 0.1 mm 3 mps 738 mmHg 67%
    21:00 +28°C° 0.1 mm 3 mps 739 mmHg 75%
    22:00 +28°C° 0 mm 3 mps 738 mmHg 76%
    23:00 +28°C° 0 mm 3 mps 738 mmHg 78%

    17 December, Sunday

    Time Temperature Precipitation Wind Pressure Humidity
    00:00 +27°C° 0 mm 3 mps 738 mmHg 79%
    01:00 +27°C° 0 mm 3 mps 738 mmHg 81%
    02:00 +27°C° 0 mm 2 mps 737 mmHg 82%
    03:00 +26°C° 0 mm 2 mps 737 mmHg 84%
    04:00 +26°C° 0 mm 2 mps 737 mmHg 86%
    05:00 +26°C° 0 mm 2 mps 737 mmHg 87%
    06:00 +26°C° 0 mm 2 mps 738 mmHg 88%
    07:00 +27°C° 0 mm 2 mps 738 mmHg 80%
    08:00 +29°C° 0 mm 2 mps 739 mmHg 72%
    09:00 +31°C° 0 mm 2 mps 740 mmHg 63%
    10:00 +34°C° 0 mm 2 mps 739 mmHg 55%
    11:00 +36°C° 0 mm 2 mps 739 mmHg 47%
    12:00 +37°C° 0 mm 1 mps 738 mmHg 39%
    13:00 +37°C° 0 mm 1 mps 738 mmHg 37%
    14:00 +39°C° 0 mm 1 mps 737 mmHg 34%
    15:00 +39°C° 0 mm 1 mps 736 mmHg 31%
    16:00 +37°C° 0 mm 2 mps 736 mmHg 38%
    17:00 +36°C° 0 mm 2 mps 736 mmHg 44%
    18:00 +34°C° 0 mm 3 mps 737 mmHg 51%
    19:00 +31°C° 0.1 mm 3 mps 737 mmHg 60%
    20:00 +30°C° 0.1 mm 3 mps 738 mmHg 70%
    21:00 +28°C° 0.1 mm 4 mps 738 mmHg 79%
    22:00 +28°C° 0 mm 4 mps 738 mmHg 80%
    23:00 +27°C° 0 mm 3 mps 738 mmHg 81%

    18 December, Monday

    Time Temperature Precipitation Wind Pressure Humidity
    00:00 +27°C° 0 mm 3 mps 738 mmHg 81%
    01:00 +27°C° 0 mm 3 mps 738 mmHg 82%
    02:00 +27°C° 0 mm 3 mps 738 mmHg 84%
    03:00 +27°C° 0 mm 2 mps 737 mmHg 85%
    04:00 +26°C° 0 mm 2 mps 737 mmHg 86%
    05:00 +26°C° 0 mm 2 mps 738 mmHg 87%
    06:00 +26°C° 0 mm 2 mps 738 mmHg 88%
    07:00 +27°C° 0 mm 2 mps 739 mmHg 82%
    08:00 +28°C° 0 mm 3 mps 739 mmHg 76%
    09:00 +29°C° 0 mm 3 mps 740 mmHg 71%
    10:00 +30°C° 0 mm 3 mps 739 mmHg 67%
    11:00 +31°C° 0 mm 3 mps 739 mmHg 64%
    12:00 +33°C° 0 mm 3 mps 738 mmHg 60%
    13:00 +33°C° 0 mm 3 mps 738 mmHg 58%
    14:00 +34°C° 0 mm 3 mps 737 mmHg 55%
    15:00 +34°C° 0 mm 3 mps 736 mmHg 53%
    16:00 +33°C° 0.1 mm 3 mps 736 mmHg 57%
    17:00 +31°C° 0.1 mm 3 mps 737 mmHg 60%
    18:00 +30°C° 0.1 mm 3 mps 737 mmHg 64%
    19:00 +29°C° 0 mm 3 mps 737 mmHg 67%
    20:00 +29°C° 0 mm 3 mps 738 mmHg 70%
    21:00 +28°C° 0 mm 3 mps 739 mmHg 73%
    22:00 +28°C° 0 mm 3 mps 738 mmHg 75%
    23:00 +27°C° 0 mm 3 mps 738 mmHg 76%

    19 December, Tuesday

    Time Temperature Precipitation Wind Pressure Humidity
    00:00 +27°C° 0 mm 3 mps 738 mmHg 78%
    01:00 +27°C° 0 mm 3 mps 738 mmHg 80%
    02:00 +26°C° 0 mm 3 mps 737 mmHg 82%
    03:00 +26°C° 0 mm 2 mps 737 mmHg 84%
    04:00 +26°C° 0 mm 2 mps 737 mmHg 85%
    05:00 +26°C° 0 mm 2 mps 738 mmHg 87%
    06:00 +25°C° 0 mm 1 mps 738 mmHg 89%
    07:00 +27°C° 0 mm 2 mps 739 mmHg 79%
    08:00 +29°C° 0 mm 2 mps 739 mmHg 70%
    09:00 +31°C° 0 mm 3 mps 740 mmHg 61%
    10:00 +34°C° 0 mm 3 mps 739 mmHg 54%
    11:00 +36°C° 0 mm 2 mps 739 mmHg 46%
    12:00 +37°C° 0 mm 2 mps 738 mmHg 39%
    13:00 +37°C° 0 mm 2 mps 737 mmHg 39%
    14:00 +37°C° 0 mm 2 mps 737 mmHg 39%
    15:00 +37°C° 0 mm 2 mps 736 mmHg 39%
    16:00 +35°C° 0 mm 3 mps 736 mmHg 45%
    17:00 +34°C° 0 mm 3 mps 737 mmHg 51%
    18:00 +32°C° 0 mm 4 mps 737 mmHg 58%
    19:00 +30°C° 0 mm 4 mps 737 mmHg 63%
    20:00 +29°C° 0 mm 4 mps 738 mmHg 68%
    21:00 +28°C° 0 mm 4 mps 738 mmHg 74%
    22:00 +28°C° 0 mm 3 mps 738 mmHg 75%
    23:00 +28°C° 0 mm 3 mps 738 mmHg 76%
    Show more